Weather History for Hollywood, FL

Change the Weather History Date:

Saturday, January 26, 2013

  Actual Average (KFLL) Record (KFLL)
Temperature  
Mean Temperature 68 °F 69 °F  
Max Temperature 78 °F 77 °F 84 °F (1975)
Min Temperature 57 °F 62 °F 33 °F (1951)
Degree Days  
Heating Degree Days 0 1  
Month to date heating degree days 42  
Since 1 July heating degree days 74  
Cooling Degree Days 2 6  
Month to date cooling degree days 142  
Year to date cooling degree days 142  
Growing Degree Days 18 (Base 50)    
Moisture  
Dew Point 57 °F    
Average Humidity 70    
Maximum Humidity 93    
Minimum Humidity 45    
Precipitation  
Precipitation 0.00 in 0.18 in 0.85 in (1967)
Month to date precipitation 2.74  
Year to date precipitation 2.74  
Snow  
Snow 0.00 in - - ()
Month to date snowfall  
Since 1 July snowfall  
Snow Depth -    
Sea Level Pressure  
Sea Level Pressure 30.23 in    
Wind  
Wind Speed 4 mph (NNE)    
Max Wind Speed 13 mph    
Max Gust Speed 16 mph    
Visibility 10 miles    
Events      
T = Trace of Precipitation, MM = Missing Value Source: NWS Daily Summary

Daily Weather History Graph

Daily Weather History Graph

Search for Another Location

Airport:

Trip Planner

Search our weather history database for the weather conditions in past years. The results will help you decide how hot, cold, wet, or windy it might be!

Date:

Astronomy

Jan. 26, 2013 Rise Set
Actual Time 7:07 AM EST 6:00 PM EST
Civil Twilight 6:43 AM EST 6:24 PM EST
Nautical Twilight 6:15 AM EST 6:52 PM EST
Astronomical Twilight 5:47 AM EST 7:19 PM EST
Moon 5:48 PM EST (1/26) 6:27 AM EST (1/26)
Length of Visible Light 11h 41m
Length of Day
10h 52m
Full, 100% of the Moon is Illuminated
Jan 26
Full
Jan 26
Full
Feb 3
Last Quarter
Feb 10
New
Feb 17
First Quarter

Hourly Weather History & Observations

Time (EST) Temp. Dew Point Humidity Pressure Visibility Wind Dir Wind Speed Gust Speed Precip Events Conditions
12:53 AM 61.0 °F 55.9 °F 83% 30.23 in 10.0 mi Calm Calm - N/A   Clear
1:53 AM 60.1 °F 55.9 °F 86% 30.23 in 10.0 mi Calm Calm - N/A   Clear
2:53 AM 60.1 °F 55.9 °F 86% 30.22 in 10.0 mi Calm Calm - N/A   Clear
3:53 AM 57.9 °F 55.0 °F 90% 30.21 in 10.0 mi Calm Calm - N/A   Clear
4:53 AM 57.9 °F 55.9 °F 93% 30.22 in 10.0 mi NW 5.8 mph - N/A   Clear
5:53 AM 57.9 °F 55.9 °F 93% 30.23 in 10.0 mi NNW 4.6 mph - N/A   Clear
6:53 AM 57.9 °F 55.0 °F 90% 30.24 in 10.0 mi North 4.6 mph - N/A   Clear
7:53 AM 60.1 °F 55.0 °F 83% 30.26 in 10.0 mi North 6.9 mph - N/A   Clear
8:53 AM 66.9 °F 52.0 °F 59% 30.27 in 10.0 mi North 11.5 mph - N/A   Clear
9:53 AM 72.0 °F 52.0 °F 49% 30.27 in 10.0 mi North 9.2 mph - N/A   Clear
10:53 AM 75.0 °F 53.1 °F 46% 30.28 in 10.0 mi North 8.1 mph 16.1 mph N/A   Clear
11:53 AM 77.0 °F 55.0 °F 47% 30.26 in 10.0 mi Variable 6.9 mph - N/A   Clear
12:53 PM 78.1 °F 55.0 °F 45% 30.22 in 10.0 mi Calm Calm - N/A   Clear
1:53 PM 75.9 °F 55.9 °F 50% 30.20 in 10.0 mi East 6.9 mph - N/A   Partly Cloudy
2:53 PM 78.1 °F 57.9 °F 50% 30.19 in 10.0 mi East 10.4 mph - N/A   Partly Cloudy
3:53 PM 75.9 °F 59.0 °F 56% 30.19 in 10.0 mi ENE 12.7 mph - N/A   Clear
4:53 PM 75.0 °F 59.0 °F 57% 30.19 in 10.0 mi East 11.5 mph - N/A   Clear
5:53 PM 72.0 °F 60.1 °F 66% 30.20 in 10.0 mi East 8.1 mph - N/A   Clear
6:53 PM 71.1 °F 60.1 °F 68% 30.21 in 10.0 mi ENE 4.6 mph - N/A   Clear
7:53 PM 68.0 °F 59.0 °F 73% 30.22 in 10.0 mi NNE 4.6 mph - N/A   Clear
9:53 PM 66.0 °F 59.0 °F 78% 30.23 in 10.0 mi Calm Calm - N/A   Clear
10:53 PM 64.9 °F 60.1 °F 84% 30.24 in 10.0 mi Calm Calm - N/A   Clear
11:53 PM 66.0 °F 60.1 °F 81% 30.23 in 10.0 mi East 4.6 mph - N/A   Clear